Tracking 19638 objects as of 21-Apr-2019
HD Live streaming from Space Station
objects crossing your sky now

CZ-4 DEB

Track CZ-4 DEB now!
10-day predictions


NORAD ID: 35325
Int'l Code: 1999-057SD
Perigee: 635.6 km
Apogee: 663.3 km
Inclination: 98.5 °
Period: 97.6 minutes
Semi major axis: 7020 km
RCS: 0.0112 m2 (small)
Launch date: October 14, 1999
Source: People's Republic of China (PRC)
Launch site: Taiyaun Space Center, China (TSC)

Note: This is SATELLITE DEBRIS
aabbcc
Your satellite tracking list
Your tracking list is empty




NASA's NSSDC Master Catalog

Two Line Element Set (TLE):
1 35325U 99057SD  19111.17975868  .00000664  00000-0  10477-3 0  9990
2 35325  98.5044  91.7014 0019710  58.8701 301.4437 14.75894693806674
Source of the keplerian elements: AFSPC